FW5704 Weather Reports


Display with metric or nautical units.
time (UTC)temp
F
wind
direction
speed
MPH
gust
MPH
rain 1hr
in
rain 24hr
in
rain mn
in
humidity
%
barometer
mb
20260904234603 75 0 0.0 0.0 0.00 0.00 0.00 89 1018.6
20260904234038 75 0 0.0 0.0 0.00 0.00 0.00 89 1018.5
20260904233534 75 0 0.0 0.0 0.00 0.00 0.00 89 1018.5
20260904233058 75 0 0.0 0.0 0.00 0.00 0.00 89 1018.4
20260904232535 75 0 0.0 0.0 0.00 0.00 0.00 89 1018.4
20260904232034 75 0 0.0 0.0 0.00 0.00 0.00 88 1018.5
20260904231558 75 0 0.0 0.0 0.00 0.00 0.00 88 1018.4
20260904231033 75 0 0.0 0.0 0.00 0.00 0.00 88 1018.4
20260904230533 75 0 0.0 0.0 0.00 0.00 0.00 88 1018.3
20260904230108 75 0 0.0 0.0 0.00 0.00 0.00 88 1018.3
20260904225533 75 0 0.0 0.0 0.00 0.00 0.00 89 1018.2
20260904225035 75 0 0.0 0.0 0.00 0.00 0.00 89 1018.2
20260904224555 75 0 0.0 0.0 0.00 0.00 0.00 88 1018.3
20260904224036 75 0 0.0 1.0 0.00 0.00 0.00 88 1018.3
20260904223534 75 0 0.0 1.0 0.00 0.00 0.00 88 1018.2
20260904223050 75 0 0.0 1.0 0.00 0.00 0.00 87 1018.4
20260904222534 75 0 0.0 1.0 0.00 0.00 0.00 88 1018.3
20260904222033 75 0 0.0 1.0 0.00 0.00 0.00 87 1018.3
20260904221558 75 0 0.0 2.0 0.00 0.00 0.00 86 1018.2
20260904221033 75 0 0.0 2.0 0.00 0.00 0.00 86 1018.4
20260904220535 75 0 0.0 2.0 0.00 0.00 0.00 85 1018.3
20260904220100 75 0 0.0 2.0 0.00 0.00 0.00 84 1018.2
20260904215534 76 17 0.0 1.0 0.00 0.00 0.00 84 1018.3
20260904215034 76 0 0.0 2.0 0.00 0.00 0.00 83 1018.4
20260904214610 77 0 0.0 2.0 0.00 0.00 0.00 82 1018.3
20260904214033 77 10 0.0 2.0 0.00 0.00 0.00 82 1018.2
20260904213534 78 0 1.0 4.0 0.00 0.00 0.00 79 1018.2
20260904213051 78 11 1.0 4.0 0.00 0.00 0.00 77 1018.2
20260904212534 79 32 1.0 4.0 0.00 0.00 0.00 76 1018.2
20260904212034 80 12 1.0 4.0 0.00 0.00 0.00 72 1018.3
20260904211601 81 92 2.0 4.0 0.00 0.00 0.00 71 1018.3
20260904211035 83 27 2.0 4.0 0.00 0.00 0.00 69 1018.3
20260904210534 84 22 2.0 10.0 0.00 0.00 0.00 69 1018.4
20260904210055 85 55 0.0 10.0 0.00 0.00 0.00 69 1018.4
20260904205534 87 5 2.0 6.0 0.00 0.29 0.00 65 1018.2
20260904205033 88 305 2.0 6.0 0.00 0.29 0.00 66 1017.9
20260904204556 88 55 2.0 5.0 0.00 0.29 0.00 66 1018.0
20260904204037 88 205 1.0 3.0 0.00 0.29 0.00 68 1017.9
20260904203534 88 0 0.0 3.0 0.00 0.29 0.00 70 1017.9
20260904203102 88 206 1.0 4.0 0.00 0.29 0.00 68 1017.7
20260904202533 87 198 0.0 4.0 0.00 0.29 0.00 66 1017.8
20260904202034 87 202 0.0 6.0 0.00 0.29 0.00 70 1017.9
20260904201600 87 197 1.0 6.0 0.00 0.29 0.00 68 1018.0
20260904201033 87 201 1.0 6.0 0.00 0.29 0.00 69 1018.0
20260904200535 86 207 0.0 3.0 0.00 0.29 0.00 69 1018.1
20260904200100 86 207 1.0 3.0 0.00 0.29 0.00 70 1018.2
20260904195533 86 212 1.0 5.0 0.00 0.29 0.00 74 1018.4
20260904195033 87 208 1.0 5.0 0.00 0.29 0.00 69 1018.4
20260904194610 87 202 2.0 8.0 0.00 0.29 0.00 69 1018.5
20260904194035 87 0 2.0 8.0 0.00 0.29 0.00 68 1018.6
20260904193534 86 204 3.0 8.0 0.00 0.29 0.00 69 1018.6
20260904193059 86 0 1.0 4.0 0.00 0.29 0.00 71 1018.7
20260904192533 86 217 1.0 3.0 0.00 0.29 0.00 67 1018.8
20260904192033 87 0 1.0 3.0 0.00 0.29 0.00 65 1019.0
20260904191557 88 205 1.0 3.0 0.00 0.29 0.00 67 1019.1
20260904191034 88 201 0.0 6.0 0.00 0.29 0.00 66 1019.1
20260904190538 88 201 1.0 6.0 0.00 0.29 0.00 66 1019.1
20260904190050 88 207 0.0 6.0 0.00 0.29 0.00 68 1019.2
20260904185533 88 200 0.0 5.0 0.00 0.29 0.00 67 1019.1
20260904185036 88 202 1.0 5.0 0.00 0.29 0.00 65 1019.1
20260904184614 88 187 1.0 5.0 0.00 0.29 0.00 68 1019.2
20260904184034 88 188 0.0 5.0 0.00 0.29 0.00 68 1019.3
20260904183534 88 205 1.0 6.0 0.00 0.29 0.00 69 1019.3
20260904183057 88 201 1.0 6.0 0.00 0.29 0.00 69 1019.4
20260904182535 87 196 2.0 4.0 0.00 0.29 0.00 68 1019.3
20260904182034 88 217 0.0 3.0 0.00 0.29 0.00 68 1019.2
20260904181610 88 225 1.0 3.0 0.00 0.29 0.00 67 1019.4
20260904181033 88 192 1.0 6.0 0.00 0.29 0.00 66 1019.5
20260904180536 88 209 2.0 6.0 0.00 0.29 0.00 67 1019.4
20260904180100 89 200 1.0 4.0 0.00 0.29 0.00 64 1019.5
20260904175533 89 0 0.0 7.0 0.00 0.29 0.00 66 1019.6
20260904175033 89 196 0.0 7.0 0.00 0.29 0.00 66 1019.6
20260904174556 89 198 1.0 7.0 0.00 0.29 0.00 64 1019.7
20260904174033 89 352 1.0 3.0 0.00 0.29 0.00 62 1019.7
20260904173534 88 0 0.0 5.0 0.00 0.29 0.00 66 1019.8
20260904173054 88 175 2.0 5.0 0.00 0.29 0.00 66 1020.0
20260904172533 88 223 0.0 3.0 0.00 0.29 0.00 65 1019.9
20260904172036 88 0 0.0 3.0 0.00 0.29 0.00 70 1020.0
20260904171618 88 0 0.0 4.0 0.00 0.29 0.00 69 1020.0
20260904171033 87 0 1.0 4.0 0.00 0.29 0.00 68 1020.1
20260904170535 87 200 0.0 4.0 0.00 0.29 0.00 70 1020.2
20260904170058 86 0 0.0 4.0 0.00 0.29 0.00 72 1020.1
20260904165533 86 0 0.0 4.0 0.00 0.29 0.00 70 1020.2
20260904165033 86 195 0.0 3.0 0.00 0.29 0.00 70 1020.4
20260904164614 86 213 0.0 3.0 0.00 0.29 0.00 71 1020.3
20260904164036 86 236 1.0 5.0 0.00 0.29 0.00 71 1020.4
20260904163533 85 0 0.0 5.0 0.00 0.29 0.00 73 1020.4
20260904163053 85 207 1.0 5.0 0.00 0.29 0.00 71 1020.4
20260904162533 85 0 0.0 4.0 0.00 0.29 0.00 73 1020.5
20260904162035 84 206 0.0 4.0 0.00 0.29 0.00 73 1020.6
20260904161610 84 0 0.0 4.0 0.00 0.29 0.00 73 1020.6
20260904161033 84 0 1.0 4.0 0.00 0.29 0.00 73 1020.7
20260904160533 84 213 1.0 3.0 0.00 0.29 0.00 76 1020.7
20260904160100 84 0 0.0 3.0 0.00 0.29 0.00 76 1020.7
20260904155532 83 0 0.0 3.0 0.00 0.29 0.00 76 1020.8
20260904155033 83 0 0.0 2.0 0.00 0.29 0.00 76 1020.7
20260904154557 83 204 0.0 2.0 0.00 0.29 0.00 77 1020.8
20260904154033 82 0 0.0 3.0 0.00 0.29 0.00 79 1020.8
20260904153537 82 0 0.0 3.0 0.00 0.29 0.00 77 1020.9
20260904153059 82 0 0.0 4.0 0.00 0.29 0.00 78 1020.9
20260904152534 82 0 0.0 4.0 0.00 0.29 0.00 76 1021.0
20260904152033 82 207 1.0 4.0 0.00 0.29 0.00 76 1020.9
20260904151601 81 197 0.0 4.0 0.00 0.29 0.00 78 1020.9
20260904151034 81 209 0.0 4.0 0.00 0.29 0.00 78 1020.9
20260904150533 81 0 0.0 4.0 0.00 0.29 0.00 80 1020.8
20260904150100 81 0 0.0 4.0 0.00 0.29 0.00 80 1020.8
20260904145533 80 0 1.0 4.0 0.00 0.29 0.00 81 1020.8
20260904145034 80 207 1.0 4.0 0.00 0.29 0.00 82 1020.8
20260904144557 80 209 0.0 3.0 0.00 0.29 0.00 81 1020.8
20260904144033 79 0 0.0 3.0 0.00 0.29 0.00 80 1020.7
20260904143533 79 0 0.0 3.0 0.00 0.29 0.00 81 1020.7
20260904143057 79 0 0.0 2.0 0.00 0.29 0.00 83 1020.7
20260904142533 78 223 0.0 2.0 0.00 0.29 0.00 83 1020.8
20260904142036 78 0 0.0 1.0 0.00 0.29 0.00 83 1020.7
20260904141559 77 0 0.0 1.0 0.00 0.29 0.00 86 1020.6
20260904141033 76 0 0.0 1.0 0.00 0.29 0.00 88 1020.7
20260904140535 75 0 0.0 1.0 0.00 0.29 0.00 90 1020.6
20260904140059 74 0 0.0 1.0 0.00 0.29 0.00 92 1020.7
20260904135535 74 0 0.0 0.0 0.00 0.29 0.00 94 1020.7
20260904135034 73 0 0.0 1.0 0.00 0.29 0.00 96 1020.5
20260904134602 73 0 0.0 1.0 0.00 0.29 0.00 97 1020.5
20260904134033 72 0 0.0 1.0 0.00 0.29 0.00 97 1020.5
20260904133533 72 0 0.0 1.0 0.00 0.29 0.00 97 1020.6
20260904133113 72 302 0.0 1.0 0.00 0.29 0.00 97 1020.5
20260904132534 71 0 0.0 1.0 0.00 0.29 0.00 97 1020.5
20260904132033 71 0 0.0 1.0 0.00 0.29 0.00 97 1020.5
20260904131601 71 0 0.0 1.0 0.00 0.29 0.00 97 1020.5
20260904131033 71 302 0.0 1.0 0.00 0.29 0.00 97 1020.6
20260904130533 71 0 0.0 0.0 0.00 0.29 0.00 97 1020.6
20260904130057 71 0 0.0 0.0 0.00 0.29 0.00 97 1020.6
20260904125533 71 0 0.0 0.0 0.00 0.29 0.00 97 1020.5
20260904125034 70 0 0.0 0.0 0.00 0.29 0.00 97 1020.5
20260904124603 70 0 0.0 0.0 0.00 0.29 0.00 97 1020.6
20260904124034 70 0 0.0 0.0 0.00 0.29 0.00 97 1020.7
20260904123532 70 0 0.0 0.0 0.00 0.29 0.00 97 1020.7
20260904123058 69 0 0.0 0.0 0.00 0.29 0.00 97 1020.7
20260904122533 69 0 0.0 0.0 0.00 0.29 0.00 96 1020.7
20260904122036 69 0 0.0 0.0 0.00 0.29 0.00 96 1020.6
20260904121553 69 0 0.0 0.0 0.00 0.29 0.00 97 1020.6
20260904121036 69 0 0.0 0.0 0.00 0.29 0.00 96 1020.7
20260904120533 69 0 0.0 0.0 0.00 0.29 0.00 96 1020.7
20260904120101 68 0 0.0 0.0 0.00 0.29 0.00 96 1020.6
20260904115537 68 0 0.0 0.0 0.00 0.29 0.00 96 1020.6
20260904115033 68 0 0.0 0.0 0.00 0.29 0.00 96 1020.5
20260904114559 68 0 0.0 0.0 0.00 0.29 0.00 96 1020.5
20260904114035 68 0 0.0 0.0 0.00 0.29 0.00 96 1020.4
20260904113533 68 0 0.0 0.0 0.00 0.29 0.00 96 1020.2
20260904113057 68 0 0.0 0.0 0.00 0.29 0.00 96 1020.2
20260904112533 68 0 0.0 0.0 0.00 0.29 0.00 96 1020.4
20260904112032 68 0 0.0 0.0 0.00 0.29 0.00 96 1020.4
20260904111558 68 0 0.0 0.0 0.00 0.29 0.00 96 1020.4
20260904111033 68 0 0.0 0.0 0.00 0.29 0.00 96 1020.3
20260904110535 68 0 0.0 0.0 0.00 0.29 0.00 95 1020.2
20260904110058 68 0 0.0 0.0 0.00 0.29 0.00 96 1020.1
20260904105533 68 0 0.0 0.0 0.00 0.29 0.00 95 1020.2
20260904105033 68 0 0.0 0.0 0.00 0.29 0.00 95 1020.1
20260904104609 68 0 0.0 0.0 0.00 0.29 0.00 95 1020.0
20260904104035 68 0 0.0 0.0 0.00 0.29 0.00 95 1020.0
20260904103532 68 0 0.0 0.0 0.00 0.29 0.00 96 1019.9
20260904103100 68 0 0.0 0.0 0.00 0.29 0.00 96 1020.0
20260904102533 69 0 0.0 0.0 0.00 0.29 0.00 96 1019.9
20260904102037 69 0 0.0 0.0 0.00 0.29 0.00 96 1019.8
20260904101557 69 0 0.0 0.0 0.00 0.29 0.00 95 1019.8
20260904101032 69 0 0.0 0.0 0.00 0.29 0.00 95 1019.8
20260904100532 69 0 0.0 0.0 0.00 0.29 0.00 95 1019.8
20260904100114 69 0 0.0 0.0 0.00 0.29 0.00 95 1019.7
20260904095533 69 0 0.0 0.0 0.00 0.29 0.00 95 1019.9
20260904095032 69 0 0.0 0.0 0.00 0.29 0.00 95 1019.8
20260904094615 69 0 0.0 0.0 0.00 0.29 0.00 95 1019.8
20260904094032 69 0 0.0 0.0 0.00 0.29 0.00 95 1019.6
20260904093534 69 0 0.0 0.0 0.00 0.29 0.00 95 1019.6
20260904093103 69 0 0.0 0.0 0.00 0.29 0.00 95 1019.5
20260904092533 69 0 0.0 0.0 0.00 0.29 0.00 95 1019.6
20260904092036 69 0 0.0 0.0 0.00 0.29 0.00 95 1019.6
20260904091554 69 0 0.0 0.0 0.00 0.29 0.00 95 1019.6
20260904091035 69 0 0.0 0.0 0.00 0.29 0.00 95 1019.6
20260904090536 69 0 0.0 0.0 0.00 0.29 0.00 95 1019.6
20260904090056 69 0 0.0 0.0 0.00 0.29 0.00 95 1019.6
20260904085534 69 0 0.0 0.0 0.00 0.29 0.00 95 1019.6
20260904085034 69 0 0.0 0.0 0.00 0.29 0.00 95 1019.6
20260904084559 70 0 0.0 0.0 0.00 0.29 0.00 95 1019.4
20260904084034 70 0 0.0 0.0 0.00 0.29 0.00 95 1019.5
20260904083534 70 0 0.0 0.0 0.00 0.29 0.00 95 1019.5
20260904083100 70 0 0.0 0.0 0.00 0.29 0.00 95 1019.6
20260904082536 70 0 0.0 0.0 0.00 0.29 0.00 95 1019.4
20260904082032 70 0 0.0 0.0 0.00 0.29 0.00 95 1019.5
20260904081550 70 0 0.0 0.0 0.00 0.29 0.00 95 1019.5
20260904081033 70 0 0.0 0.0 0.00 0.29 0.00 95 1019.4
20260904080533 70 0 0.0 0.0 0.00 0.29 0.00 95 1019.5
20260904080125 70 0 0.0 0.0 0.00 0.29 0.00 95 1019.5
20260904075534 70 0 0.0 1.0 0.00 0.29 0.00 95 1019.4
20260904075034 70 0 0.0 1.0 0.00 0.29 0.00 95 1019.5
20260904074607 70 0 0.0 0.0 0.00 0.29 0.00 95 1019.5
20260904074034 70 0 0.0 0.0 0.00 0.29 0.00 95 1019.4
20260904073534 70 0 0.0 0.0 0.00 0.29 0.00 95 1019.4
20260904073054 70 0 0.0 0.0 0.00 0.29 0.00 95 1019.5
20260904072534 70 0 0.0 0.0 0.00 0.29 0.00 95 1019.6
20260904072030 70 0 0.0 0.0 0.00 0.29 0.00 95 1019.5
20260904071554 70 0 0.0 0.0 0.00 0.29 0.00 95 1019.5
20260904071035 71 0 0.0 0.0 0.00 0.29 0.00 95 1019.5
20260904070533 71 0 0.0 1.0 0.00 0.29 0.00 95 1019.5
20260904070052 71 0 0.0 1.0 0.00 0.29 0.00 95 1019.5
20260904065534 71 0 0.0 1.0 0.00 0.29 0.00 95 1019.7
20260904065036 71 302 0.0 0.0 0.00 0.29 0.00 95 1019.7
20260904064606 71 0 0.0 0.0 0.00 0.29 0.00 95 1019.7
20260904064033 71 0 0.0 0.0 0.00 0.29 0.00 95 1019.7
20260904063533 71 0 0.0 0.0 0.00 0.29 0.00 95 1019.7
20260904063053 71 0 0.0 0.0 0.00 0.29 0.00 95 1019.7
20260904062536 71 0 0.0 1.0 0.00 0.29 0.00 95 1019.7
20260904062032 71 0 0.0 1.0 0.00 0.29 0.00 95 1019.8
20260904061550 71 302 0.0 1.0 0.00 0.29 0.00 95 1019.7
20260904061037 71 0 0.0 0.0 0.00 0.29 0.00 95 1019.8
20260904060532 71 0 0.0 2.0 0.00 0.29 0.00 95 1019.8
20260904060119 71 0 0.0 2.0 0.00 0.29 0.00 95 1019.8
20260904055533 71 302 0.0 2.0 0.00 0.29 0.00 95 1020.0
20260904055033 71 0 0.0 2.0 0.00 0.29 0.00 95 1020.0
20260904054601 71 0 0.0 2.0 0.00 0.29 0.00 95 1020.1
20260904054034 71 0 0.0 2.0 0.00 0.29 0.00 95 1020.1
20260904053533 71 0 0.0 1.0 0.00 0.29 0.00 95 1020.1
20260904053144 71 302 0.0 1.0 0.00 0.29 0.00 94 1020.1
20260904052536 71 0 0.0 1.0 0.00 0.29 0.00 94 1020.2
20260904052033 71 0 0.0 1.0 0.00 0.29 0.00 94 1020.1
20260904051607 71 0 0.0 1.0 0.00 0.29 0.00 94 1020.1
20260904051032 71 0 0.0 1.0 0.00 0.29 0.00 94 1020.4
20260904050535 72 0 0.0 2.0 0.00 0.29 0.00 94 1020.4
20260904050052 72 302 0.0 2.0 0.00 0.29 0.00 94 1020.3
20260904045533 72 0 0.0 2.0 0.00 0.29 0.00 94 1020.5
20260904045034 72 0 0.0 2.0 0.00 0.29 0.00 94 1020.4
20260904044604 72 302 0.0 2.0 0.00 0.29 0.00 94 1020.6
20260904044032 72 0 0.0 1.0 0.00 0.29 0.00 94 1020.5
20260904043532 72 0 0.0 2.0 0.00 0.29 0.00 94 1020.6
20260904043104 72 0 0.0 2.0 0.00 0.29 0.00 94 1020.7
20260904042533 72 0 0.0 2.0 0.00 0.29 0.00 94 1020.7
20260904042034 72 0 0.0 3.0 0.00 0.29 0.00 94 1020.6
20260904041600 72 0 0.0 3.0 0.00 0.29 0.00 94 1020.5
20260904041034 72 294 0.0 1.0 0.00 0.29 0.00 94 1020.6
20260904040536 72 0 0.0 1.0 0.00 0.29 0.00 94 1020.7
20260904040104 72 0 0.0 0.0 0.00 0.29 0.00 94 1020.7
20260904035534 72 0 0.0 2.0 0.00 0.29 0.29 94 1020.7
20260904035034 72 0 0.0 2.0 0.00 0.29 0.29 94 1020.8
20260904034558 73 0 0.0 2.0 0.00 0.29 0.29 94 1020.9
20260904034032 72 0 0.0 3.0 0.00 0.29 0.29 94 1020.8
20260904033537 72 295 0.0 3.0 0.00 0.29 0.29 94 1020.8
20260904033103 73 0 0.0 0.0 0.00 0.29 0.29 94 1020.8
20260904032533 73 0 0.0 0.0 0.00 0.29 0.29 94 1020.8
20260904032034 73 0 0.0 0.0 0.00 0.29 0.29 94 1020.8
20260904031552 73 0 0.0 0.0 0.00 0.29 0.29 94 1020.9
20260904031033 73 0 0.0 0.0 0.00 0.29 0.29 94 1021.0
20260904030533 73 0 0.0 0.0 0.00 0.29 0.29 94 1020.9
20260904030052 73 0 0.0 0.0 0.00 0.29 0.29 94 1020.9
20260904025533 73 0 0.0 0.0 0.00 0.29 0.29 94 1020.9
20260904025033 73 0 0.0 0.0 0.00 0.29 0.29 94 1020.8
20260904024620 73 0 0.0 0.0 0.00 0.29 0.29 93 1020.9
20260904024033 73 0 0.0 0.0 0.00 0.29 0.29 93 1020.8
20260904023534 73 0 0.0 0.0 0.00 0.29 0.29 93 1020.8
20260904023054 73 0 0.0 0.0 0.00 0.29 0.29 93 1020.8
20260904022533 73 0 0.0 0.0 0.00 0.29 0.29 93 1020.8
20260904022033 73 0 0.0 0.0 0.00 0.29 0.29 94 1020.9
20260904021558 73 0 0.0 0.0 0.00 0.29 0.29 94 1020.8
20260904021033 73 0 0.0 0.0 0.00 0.29 0.29 93 1020.7
20260904020533 73 0 0.0 0.0 0.00 0.29 0.29 93 1020.6
20260904020059 73 0 0.0 0.0 0.00 0.29 0.29 93 1020.6
20260904015533 73 0 0.0 0.0 0.00 0.29 0.29 93 1020.4
20260904015034 73 0 0.0 0.0 0.00 0.29 0.29 93 1020.5
20260904014557 73 0 0.0 0.0 0.00 0.29 0.29 93 1020.3
20260904014034 73 0 0.0 0.0 0.00 0.29 0.29 93 1020.2
20260904013532 74 0 0.0 0.0 0.00 0.29 0.29 93 1020.2
20260904013054 74 0 0.0 0.0 0.00 0.29 0.29 93 1020.2
20260904012533 74 0 0.0 0.0 0.00 0.29 0.29 93 1020.1
20260904012036 74 0 0.0 0.0 0.00 0.29 0.29 93 1020.0
20260904011600 74 0 0.0 0.0 0.00 0.29 0.29 93 1020.0
20260904011033 74 0 0.0 0.0 0.00 0.29 0.29 93 1019.9
20260904010533 74 0 0.0 0.0 0.00 0.29 0.29 93 1019.8
20260904010058 74 0 0.0 0.0 0.00 0.29 0.29 93 1019.8
20260904005533 74 0 0.0 0.0 0.00 0.29 0.29 93 1019.8
20260904005033 74 0 0.0 0.0 0.00 0.29 0.29 93 1019.6
20260904004601 74 0 0.0 0.0 0.00 0.29 0.29 93 1019.6
20260904004034 74 0 0.0 0.0 0.00 0.29 0.29 93 1019.4
20260904003534 75 0 0.0 0.0 0.00 0.29 0.29 93 1019.3
20260904003059 75 0 0.0 0.0 0.00 0.29 0.29 93 1019.4
20260904002533 75 0 0.0 0.0 0.00 0.29 0.29 93 1019.4
20260904002034 75 0 0.0 1.0 0.00 0.29 0.29 92 1019.4
20260904001603 75 0 0.0 1.0 0.00 0.29 0.29 92 1019.3
20260904001037 75 0 0.0 2.0 0.00 0.29 0.29 92 1019.3
20260904000535 75 0 0.0 2.0 0.00 0.29 0.29 92 1019.2
20260904000114 76 0 0.0 2.0 0.00 0.29 0.29 91 1019.1
20260903235534 76 302 0.0 2.0 0.00 0.29 0.29 91 1019.1
20260903235033 76 0 0.0 1.0 0.00 0.29 0.29 91 1019.2